Hourly Data Report for October 16, 2013

All times are specified in Local Standard Time (LST). Add 1 hour to adjust for Daylight Saving Time where and when it is observed.

POND INLET A
NUNAVUT

72°41'22.000" N
77°58'08.000" W
61.60 m
2403206
71095
YIO

Download Data

Hourly Data (October 2013)
Hourly Data Report for October 16, 2013
Temp Definition
°C
Dew Point Temp Definition
°C
Rel Hum Definition
%
Wind Dir Definition
10's deg

Wind Spd Definition
km/h
Visibility Definition
km
Stn Press Definition
kPa
Hmdx Definition


Wind Chill Definition


Weather Definition


TIME
00:00 Legend Double Dagger -1.5 -2.6 92 18 11 16.1 100.08   -5 LegendNANA
01:00 Legend Double Dagger -1.2 -2.2 93 21 5 16.1 100.08   -3 LegendNANA
02:00 Legend Double Dagger -0.8 -1.9 92 LegendMM 4 16.1 100.07   -2 LegendNANA
03:00 Legend Double Dagger -0.9 -2.0 92 5 5 16.1 100.06   -3 LegendNANA
04:00 Legend Double Dagger -1.4 -2.0 96   0 16.1 100.02     LegendNANA
05:00 Legend Double Dagger -1.6 -2.4 94 21 4 16.1 100.00   -3 LegendNANA
06:00 Legend Double Dagger -1.6 -2.7 92 22 8 16.1 99.98   -5 LegendNANA
07:00 Legend Double Dagger -1.2 -2.5 91 17 4 16.1 99.96   -3 LegendNANA
08:00 Legend Double Dagger -1.5 -2.5 93 9 5 16.1 99.93   -3 LegendNANA
09:00 Legend Double Dagger -1.0 -2.2 92 LegendMM 4 16.1 99.93   -2 LegendNANA
10:00 Legend Double Dagger -0.6 -1.7 92 10 5 16.1 99.91   -2 LegendNANA
11:00 Legend Double Dagger -0.9 -2.0 92 16 11 16.1 99.90   -5 LegendNANA
12:00 Legend Double Dagger 0.1 -1.5 89 LegendMM 4 16.1 99.90     LegendNANA
13:00 Legend Double Dagger -0.2 -1.8 89 LegendMM 4 16.1 99.88   -1 LegendNANA
14:00 Legend Double Dagger -0.5 -1.8 91 6 8 16.1 99.86   -3 LegendNANA
15:00 Legend Double Dagger -0.7 -2.1 91 20 11 16.1 99.88   -4 LegendNANA
16:00 Legend Double Dagger -0.2 -2.0 88 1 5 16.1 99.89   -2 LegendNANA
17:00 Legend Double Dagger -0.1 -2.0 87 35 9 16.1 99.91   -3 LegendNANA
18:00 Legend Double Dagger -1.3 -3.0 88 18 8 16.1 99.94   -4 LegendNANA
19:00 Legend Double Dagger 0.3 -3.1 78   0 16.1 99.97     LegendNANA
20:00 Legend Double Dagger -1.2 -3.4 85 12 8 16.1 99.99   -4 LegendNANA
21:00 Legend Double Dagger -0.3 -3.0 82   0 16.1 100.02     LegendNANA
22:00 Legend Double Dagger -1.2 -3.6 84 7 5 16.1 100.03   -3 LegendNANA
23:00 Legend Double Dagger -0.8 -3.7 81 4 8 16.1 100.06   -4 LegendNANA

Notes on Data Quality.

Legend

  • E = Estimated
  • M = Missing
  • NA = Not Available
  • ‡ = Partner data that is not subject to review by the National Climate Archives
Date modified: